Location: Mount Cross
(36.6390°N, 79.4878°W)
Time: 01:51:11
(UTC+00:00)

Vanguard 2 Rocket - Pass Details

Date: 23 March 2023
Orbit: 554 x 3314 km, 32.9° (Epoch: 08 June)

Event Time Altitude Azimuth Distance (km) Brightness Sun altitude
Exits shadow 08:17:57 30° 189° (S) 4,788 10.1 -35.0°
Drops below altitude 10° 08:28:40 10° 160° (SSE) 6,123 11.0 -33.2°
Sets 08:33:53 0° 151° (SSE) 6,942 11.4 -32.3°
